Location: Grand Canyon Star Party (South Rim)
(36.0641°N, 112.1172°W)
Time: 12:41:06
(UTC-07:00)

OTV 5 (USA 277) - Visible Passes

Search period start: 19 November 2017 00:00
Search period end: 29 November 2017 00:00
Orbit: 404 x 417 km, 43.0° (Epoch: 07 September)

Date Brightness Start Highest point End Pass type
(mag) Time Alt. Az. Time Alt. Az. Time Alt. Az.
19 Nov ? 05:21:27 41° NE 05:21:27 41° NE 05:24:14 10° E visible
20 Nov ? 04:32:56 10° E 04:32:56 10° E 04:32:58 10° E visible
20 Nov ? 06:05:42 24° W 06:07:22 53° SSW 06:10:33 10° SE visible
21 Nov ? 05:17:14 45° ESE 05:17:14 45° ESE 05:19:36 10° ESE visible
22 Nov ? 06:01:36 18° WSW 06:02:20 20° SW 06:04:48 10° S visible
23 Nov ? 05:13:16 18° SSE 05:13:16 18° SSE 05:14:21 10° SSE visible
28 Nov ? 19:09:46 10° S 19:10:16 12° S 19:10:16 12° S visible
